Temp
-7 -7 -7 -7 -7 -7 -7 -7 -7 -7 -7 -6 -6 -6 -6 -6 -6 -6 -6 -6 -6 -6 -6 -7 -7 -7 -7 -7 -7 -7 -7 -7 -7 -6 -7 -8 -10 -10 -10 -10 -10 -10 -9 -9 -10
-7 -7 -7 -7 -7 -7 -7 -7 -7 -7 -7 -6 -6 -6 -6 -6 -6 -6 -6 -6 -6 -7 -7 -7 -8 -8 -7 -8 -8 -8 -8 -7 -8 -9 -10 -11 -11 -11 -11 -11 -11 -11 -10 -9 -10
-7 -7 -7 -7 -7 -8 -8 -7 -7 -7 -7 -7 -6 -6 -6 -6 -6 -6 -6 -6 -7 -8 -8 -8 -8 -8 -8 -8 -8 -9 -8 -10 -9 -11 -12 -12 -12 -12 -11 -11 -11 -12 -11 -10 -9
-8 -8 -7 -8 -8 -8 -8 -8 -7 -7 -7 -7 -6 -6 -6 -6 -7 -6 -7 -7 -7 -7 -8 -8 -8 -9 -9 -9 -11 -12 -12 -12 -14 -14 -14 -13 -13 -12 -12 -11 -12 -13 -12 -11 -10
-8 -8 -8 -8 -8 -8 -8 -8 -7 -7 -7 -6 -6 -6 -6 -6 -7 -7 -7 -7 -7 -8 -8 -9 -10 -10 -11 -11 -13 -16 -15 -17 -16 -16 -16 -15 -14 -13 -11 -11 -13 -13 -13 -12 -11
-9 -8 -8 -8 -8 -8 -8 -8 -7 -7 -7 -6 -6 -6 -6 -7 -7 -7 -7 -8 -8 -8 -9 -10 -11 -12 -13 -14 -17 -18 -18 -18 -18 -17 -16 -16 -15 -14 -12 -12 -13 -14 -13 -13 -12
-9 -9 -9 -8 -8 -8 -8 -8 -7 -7 -7 -6 -6 -6 -6 -7 -7 -7 -8 -8 -9 -10 -11 -12 -13 -15 -17 -18 -19 -19 -19 -18 -18 -18 -17 -16 -16 -14 -13 -14 -14 -14 -14 -13 -13
-9 -9 -9 -8 -8 -8 -8 -8 -7 -7 -7 -7 -7 -7 -6 -7 -8 -8 -9 -9 -9 -10 -12 -14 -15 -17 -20 -20 -20 -19 -19 -19 -18 -18 -17 -17 -15 -14 -15 -15 -16 -15 -15 -14 -13
-10 -9 -9 -9 -8 -8 -8 -8 -7 -7 -7 -7 -7 -7 -7 -7 -8 -8 -9 -9 -10 -11 -13 -16 -18 -20 -21 -21 -21 -20 -20 -19 -19 -18 -18 -19 -16 -17 -17 -16 -16 -16 -16 -16 -14
-10 -10 -9 -9 -9 -8 -8 -8 -7 -7 -7 -7 -7 -7 -7 -8 -8 -8 -9 -10 -11 -13 -16 -18 -20 -21 -21 -21 -21 -20 -20 -20 -19 -19 -19 -19 -17 -16 -17 -17 -16 -16 -17 -16 -15
-10 -10 -10 -9 -9 -9 -8 -8 -8 -7 -7 -7 -7 -7 -8 -8 -8 -9 -10 -11 -12 -14 -18 -21 -22 -22 -22 -21 -21 -21 -21 -20 -20 -20 -19 -19 -19 -17 -18 -18 -17 -16 -16 -16 -15
-11 -11 -10 -10 -9 -9 -8 -8 -8 -8 -7 -7 -8 -7 -8 -8 -9 -10 -11 -12 -13 -16 -20 -22 -22 -22 -22 -22 -22 -22 -22 -22 -22 -22 -20 -19 -19 -19 -18 -18 -16 -17 -16 -16 -16
-11 -11 -10 -10 -9 -9 -8 -8 -8 -8 -8 -8 -8 -8 -8 -9 -9 -11 -11 -13 -15 -19 -22 -23 -23 -23 -23 -23 -22 -23 -22 -22 -22 -22 -21 -20 -19 -19 -19 -18 -18 -17 -16 -16 -16
-11 -11 -10 -10 -9 -9 -8 -8 -8 -8 -8 -8 -9 -9 -9 -10 -11 -11 -12 -14 -16 -20 -23 -23 -24 -24 -23 -24 -23 -23 -23 -23 -22 -22 -22 -21 -19 -20 -19 -18 -18 -18 -16 -16 -16
-11 -11 -10 -10 -9 -9 -9 -9 -9 -9 -9 -9 -9 -10 -10 -11 -11 -12 -13 -15 -19 -22 -24 -24 -24 -24 -24 -24 -24 -24 -25 -25 -25 -23 -22 -23 -20 -19 -20 -19 -18 -18 -17 -16 -16
-11 -11 -11 -10 -9 -10 -10 -10 -10 -9 -10 -10 -10 -10 -11 -11 -12 -13 -15 -17 -19 -22 -24 -24 -25 -25 -25 -25 -25 -24 -25 -26 -26 -25 -24 -24 -22 -20 -21 -20 -19 -18 -18 -17 -17
-12 -11 -11 -11 -10 -10 -11 -10 -10 -10 -10 -10 -11 -11 -11 -12 -13 -14 -16 -18 -20 -22 -24 -24 -25 -25 -25 -25 -25 -25 -25 -25 -25 -25 -25 -25 -22 -21 -22 -21 -21 -20 -19 -18 -18
-12 -12 -11 -11 -11 -11 -11 -11 -11 -11 -11 -11 -11 -12 -12 -13 -14 -15 -17 -19 -22 -24 -25 -25 -25 -25 -25 -26 -26 -26 -26 -26 -25 -25 -25 -24 -23 -22 -21 -22 -21 -21 -19 -18 -18
-12 -12 -11 -11 -11 -11 -11 -11 -11 -11 -11 -11 -12 -12 -13 -14 -14 -15 -18 -20 -23 -24 -25 -26 -26 -26 -26 -26 -26 -26 -26 -26 -26 -26 -25 -24 -24 -23 -23 -22 -23 -22 -21 -19 -19
-12 -12 -12 -12 -12 -12 -12 -12 -12 -11 -11 -12 -12 -13 -13 -14 -15 -16 -19 -21 -22 -25 -26 -26 -26 -26 -26 -26 -27 -27 -27 -27 -27 -27 -26 -24 -25 -24 -23 -22 -22 -23 -22 -21 -19
-11 -11 -12 -12 -12 -12 -12 -12 -12 -12 -12 -13 -13 -13 -14 -15 -16 -17 -19 -21 -23 -24 -26 -27 -27 -27 -27 -27 -27 -28 -27 -27 -27 -27 -28 -27 -26 -25 -25 -24 -22 -22 -23 -22 -21
-11 -12 -12 -12 -13 -12 -12 -13 -12 -13 -12 -13 -14 -14 -15 -15 -16 -17 -20 -22 -23 -25 -26 -27 -27 -27 -27 -28 -28 -28 -28 -28 -28 -29 -29 -28 -27 -27 -27 -25 -23 -23 -22 -23 -22
-12 -12 -12 -12 -12 -13 -13 -13 -13 -13 -13 -14 -14 -15 -15 -16 -17 -17 -20 -22 -24 -25 -26 -27 -27 -27 -27 -28 -28 -28 -28 -29 -29 -29 -29 -29 -28 -28 -28 -26 -26 -24 -23 -22 -23
-12 -12 -12 -12 -13 -13 -13 -13 -13 -13 -14 -14 -15 -15 -15 -17 -18 -18 -20 -22 -24 -26 -27 -27 -27 -28 -28 -28 -28 -28 -28 -29 -29 -29 -29 -29 -29 -29 -28 -27 -26 -25 -23 -23 -23
-12 -12 -12 -12 -13 -13 -13 -13 -13 -13 -14 -15 -15 -16 -16 -17 -17 -19 -21 -22 -25 -26 -27 -28 -28 -28 -28 -28 -28 -28 -28 -29 -29 -29 -29 -29 -29 -28 -27 -27 -26 -25 -25 -24 -23
-13 -12 -12 -13 -13 -13 -14 -13 -14 -14 -14 -14 -15 -16 -17 -17 -17 -18 -20 -22 -24 -26 -27 -28 -28 -28 -28 -28 -28 -28 -29 -29 -29 -29 -29 -29 -28 -28 -27 -26 -26 -26 -25 -23 -23
-13 -13 -12 -13 -13 -13 -14 -13 -14 -14 -15 -15 -15 -16 -17 -18 -18 -19 -22 -23 -25 -26 -27 -28 -29 -29 -29 -29 -29 -29 -29 -29 -29 -29 -29 -29 -29 -28 -27 -26 -26 -25 -24 -24 -23
Height
5819 5816 5814 5811 5808 5804 5801 5798 5796 5794 5790 5787 5783 5780 5777 5775 5770 5764 5757 5754 5749 5744 5739 5734 5729 5722 5716 5711 5707 5701 5695 5693 5706 5706 5711 5713 5718 5727 5726 5726 5728 5730 5734 5743 5749
5814 5811 5809 5806 5803 5800 5796 5793 5791 5787 5784 5780 5775 5771 5767 5764 5760 5756 5747 5743 5738 5731 5725 5720 5713 5708 5702 5696 5684 5676 5674 5680 5684 5685 5684 5689 5695 5701 5708 5709 5715 5717 5721 5728 5737
5809 5807 5804 5800 5797 5793 5791 5788 5785 5781 5777 5773 5767 5762 5759 5753 5749 5743 5737 5732 5724 5716 5709 5701 5694 5686 5679 5671 5663 5657 5653 5661 5659 5656 5659 5665 5676 5680 5690 5696 5703 5704 5706 5713 5722
5804 5801 5798 5795 5790 5787 5785 5782 5778 5774 5770 5765 5759 5754 5749 5744 5738 5729 5723 5717 5709 5700 5692 5685 5675 5663 5654 5644 5636 5626 5630 5632 5636 5635 5638 5642 5653 5661 5669 5690 5689 5692 5693 5699 5708
5799 5795 5792 5789 5785 5781 5779 5775 5771 5766 5762 5757 5750 5745 5738 5733 5726 5715 5709 5701 5693 5684 5674 5662 5650 5639 5631 5621 5611 5605 5615 5613 5616 5617 5619 5625 5631 5642 5661 5670 5675 5678 5681 5686 5694
5793 5790 5786 5782 5778 5775 5772 5768 5763 5759 5753 5747 5740 5735 5727 5721 5714 5705 5694 5686 5675 5665 5653 5640 5627 5614 5604 5599 5594 5591 5595 5599 5599 5602 5605 5606 5614 5623 5649 5648 5650 5656 5664 5670 5678
5787 5783 5779 5776 5771 5767 5765 5760 5756 5750 5744 5737 5730 5724 5717 5709 5702 5692 5682 5671 5658 5644 5631 5616 5604 5592 5585 5583 5579 5579 5579 5582 5589 5589 5588 5591 5594 5611 5626 5624 5630 5640 5648 5654 5664
5781 5777 5773 5768 5764 5760 5757 5752 5747 5741 5735 5727 5720 5713 5706 5697 5688 5679 5667 5654 5640 5626 5610 5594 5583 5577 5571 5569 5570 5566 5567 5570 5574 5574 5575 5576 5585 5608 5600 5599 5611 5622 5631 5637 5648
5775 5771 5766 5761 5756 5753 5748 5744 5739 5732 5725 5717 5710 5702 5695 5686 5676 5663 5649 5635 5622 5607 5593 5578 5567 5564 5562 5558 5556 5558 5555 5556 5559 5560 5561 5561 5574 5574 5575 5578 5591 5603 5615 5624 5633
5768 5764 5759 5754 5749 5745 5740 5735 5729 5723 5716 5707 5701 5694 5682 5672 5660 5648 5634 5621 5606 5591 5577 5564 5557 5552 5552 5548 5546 5544 5542 5545 5547 5548 5548 5551 5557 5562 5566 5569 5580 5588 5594 5609 5621
5761 5756 5752 5747 5742 5737 5732 5726 5721 5715 5706 5698 5689 5680 5669 5659 5647 5635 5621 5606 5591 5575 5563 5554 5549 5545 5542 5539 5537 5536 5535 5535 5538 5538 5533 5541 5550 5553 5554 5558 5570 5583 5592 5601 5612
5754 5749 5745 5740 5734 5729 5723 5716 5709 5703 5695 5687 5678 5668 5657 5646 5635 5623 5608 5594 5577 5563 5553 5546 5543 5539 5536 5533 5531 5529 5527 5527 5527 5525 5527 5532 5541 5545 5549 5555 5563 5571 5582 5594 5602
5747 5743 5738 5732 5725 5719 5712 5706 5699 5690 5683 5676 5665 5655 5645 5636 5623 5610 5597 5580 5566 5551 5544 5539 5537 5533 5529 5525 5524 5524 5523 5521 5521 5521 5523 5525 5532 5538 5542 5548 5554 5563 5574 5582 5594
5741 5736 5731 5725 5718 5711 5704 5695 5687 5679 5671 5663 5652 5643 5634 5624 5612 5599 5585 5569 5556 5546 5540 5537 5531 5528 5524 5520 5519 5518 5516 5516 5517 5517 5520 5519 5520 5530 5534 5540 5549 5556 5562 5573 5582
5733 5728 5723 5716 5710 5702 5695 5686 5677 5669 5660 5653 5643 5633 5623 5614 5600 5587 5572 5558 5547 5539 5535 5533 5528 5524 5520 5516 5514 5514 5510 5509 5509 5509 5512 5515 5516 5528 5531 5539 5543 5548 5553 5559 5566
5726 5720 5714 5707 5700 5692 5684 5676 5669 5661 5649 5642 5633 5623 5613 5601 5588 5574 5560 5550 5541 5535 5530 5526 5521 5520 5517 5513 5510 5508 5507 5506 5505 5505 5507 5508 5514 5524 5526 5528 5532 5533 5538 5543 5552
5719 5712 5707 5698 5690 5683 5675 5668 5660 5650 5642 5633 5623 5613 5602 5591 5578 5564 5552 5543 5534 5528 5526 5523 5518 5515 5513 5509 5506 5505 5503 5499 5500 5499 5501 5501 5509 5513 5519 5519 5519 5519 5523 5532 5541
5713 5705 5698 5690 5682 5675 5667 5660 5651 5643 5633 5625 5614 5602 5591 5580 5569 5555 5547 5538 5527 5522 5518 5517 5514 5511 5508 5505 5502 5500 5500 5498 5493 5491 5491 5495 5496 5503 5512 5502 5504 5507 5513 5518 5527
5705 5698 5691 5682 5674 5666 5659 5650 5642 5632 5624 5614 5603 5593 5582 5570 5558 5548 5540 5531 5522 5517 5513 5508 5509 5506 5502 5499 5498 5494 5493 5491 5487 5487 5483 5483 5484 5490 5487 5499 5500 5503 5506 5510 5516
5696 5691 5683 5676 5667 5658 5650 5642 5632 5623 5613 5604 5593 5584 5572 5562 5551 5541 5533 5523 5517 5511 5506 5501 5498 5499 5496 5492 5490 5487 5486 5485 5482 5478 5476 5478 5473 5473 5480 5488 5490 5493 5497 5501 5506
5686 5679 5674 5667 5658 5649 5641 5633 5624 5614 5604 5595 5585 5574 5564 5554 5544 5534 5526 5516 5508 5503 5499 5494 5493 5494 5489 5485 5482 5480 5479 5477 5474 5472 5467 5464 5467 5470 5470 5474 5480 5483 5488 5492 5498
5676 5670 5663 5657 5650 5640 5633 5623 5615 5604 5594 5586 5576 5565 5555 5546 5536 5526 5517 5507 5500 5495 5491 5488 5485 5485 5481 5477 5475 5473 5471 5468 5465 5464 5461 5455 5451 5468 5460 5466 5469 5471 5478 5484 5489
5665 5661 5656 5650 5639 5630 5623 5614 5604 5594 5586 5575 5567 5557 5547 5539 5528 5519 5509 5502 5494 5489 5483 5481 5477 5477 5473 5471 5468 5467 5465 5462 5459 5456 5455 5446 5444 5454 5449 5457 5459 5462 5469 5475 5480
5654 5648 5643 5639 5629 5621 5612 5605 5595 5584 5577 5566 5559 5548 5539 5532 5520 5510 5502 5494 5488 5482 5477 5472 5472 5471 5468 5464 5462 5461 5461 5457 5453 5449 5444 5441 5440 5446 5444 5449 5451 5454 5459 5466 5473
5646 5638 5634 5627 5619 5610 5601 5594 5585 5575 5569 5559 5551 5540 5532 5523 5512 5502 5493 5485 5480 5475 5471 5466 5464 5462 5460 5458 5456 5456 5456 5453 5448 5444 5435 5437 5436 5437 5439 5443 5445 5448 5452 5458 5466
5634 5627 5621 5620 5610 5602 5593 5586 5578 5567 5560 5551 5541 5532 5524 5514 5502 5493 5482 5475 5471 5466 5461 5459 5455 5454 5453 5450 5448 5447 5448 5446 5443 5438 5432 5429 5431 5432 5433 5437 5440 5442 5446 5451 5456
5624 5618 5611 5609 5599 5591 5584 5576 5567 5558 5551 5539 5530 5523 5515 5506 5495 5485 5475 5466 5460 5456 5452 5450 5448 5446 5445 5443 5439 5440 5441 5439 5437 5434 5429 5427 5426 5427 5429 5430 5433 5435 5438 5444 5450
Wind_Speed
25 26 28 28 29 29 25 26 27 29 32 34 36 35 37 36 40 43 47 47 48 49 51 53 56 60 62 63 69 74 73 70 65 71 68 66 59 53 54 55 57 59 58 54 50
26 28 29 30 30 29 28 29 31 32 35 38 37 40 42 43 46 47 52 52 53 57 55 57 60 61 63 66 73 78 78 73 74 74 73 67 64 61 61 59 58 60 60 58 53
27 28 30 32 33 32 31 32 35 38 40 41 43 46 46 47 49 51 55 54 58 57 57 57 61 62 65 70 79 83 80 77 79 78 71 69 64 64 63 64 58 59 61 62 59
31 32 33 35 34 34 34 35 38 41 43 44 46 47 48 49 54 57 58 62 62 64 66 68 65 64 68 77 84 85 83 80 72 69 68 69 63 64 65 62 60 60 61 64 62
33 34 35 35 34 35 35 36 38 41 42 44 47 48 50 51 54 58 62 64 67 70 71 65 64 66 71 82 82 77 74 65 64 60 59 57 58 60 59 63 60 61 64 64 64
33 35 36 36 36 37 37 38 40 42 43 46 47 46 50 53 55 59 63 64 69 71 69 68 66 71 79 80 68 62 57 52 52 55 56 59 60 56 56 64 67 64 66 66 67
34 36 37 37 37 38 37 39 41 43 43 42 46 48 52 54 57 59 63 68 71 73 70 64 66 73 65 59 55 50 50 48 45 52 61 64 66 53 56 66 69 66 67 69 68
36 37 38 38 39 38 38 40 42 40 41 45 47 52 53 56 58 61 66 69 73 75 69 64 65 63 53 50 47 54 48 52 50 55 60 63 60 53 67 66 65 65 68 70 70
37 38 38 38 38 37 39 39 39 41 44 47 51 52 56 57 61 65 71 74 77 77 66 60 59 54 45 46 48 43 52 51 49 51 50 42 55 60 57 62 64 65 67 69 70
38 37 37 37 38 39 39 40 43 44 46 50 54 55 57 60 63 70 73 74 75 70 55 51 49 45 40 42 44 48 43 45 39 48 48 44 42 53 54 56 62 64 68 70 70
37 36 36 37 37 38 41 43 46 49 50 54 53 55 57 61 67 71 74 75 76 64 46 40 34 30 35 34 39 42 38 41 41 39 46 44 43 45 38 41 52 56 66 70 68
34 35 35 35 37 39 44 48 51 53 54 53 55 56 59 63 68 72 74 76 72 53 38 32 30 31 32 36 39 29 29 26 27 29 37 43 36 45 43 41 49 49 56 68 68
32 31 34 38 42 45 48 50 52 52 52 56 53 58 60 65 69 72 72 74 62 46 31 28 29 29 30 35 36 29 22 23 29 28 30 36 39 34 41 46 39 41 50 64 66
32 34 37 41 44 46 50 53 52 52 53 52 57 59 62 66 68 71 72 70 56 39 27 24 30 31 32 33 33 31 29 23 23 25 24 28 38 28 36 38 41 32 44 57 69
34 36 38 41 44 47 52 53 51 53 57 55 57 59 63 65 69 68 70 62 46 32 25 28 29 30 32 34 33 30 25 25 25 28 25 20 31 23 28 32 37 37 37 61 66
38 41 42 43 46 49 53 53 53 54 54 56 57 60 63 65 67 67 65 57 47 30 22 22 27 27 28 28 29 31 29 26 27 31 33 30 25 19 19 30 36 43 42 53 66
39 42 43 47 48 50 54 53 55 54 55 57 59 61 63 65 64 64 61 50 41 30 22 20 23 24 25 29 28 31 32 34 36 34 34 35 31 28 16 21 27 36 44 46 59
40 44 47 49 50 51 54 54 55 54 55 56 59 62 63 65 63 61 57 46 32 28 26 22 24 26 26 27 28 28 28 30 37 40 42 41 43 36 23 28 31 34 44 49 48
43 46 48 51 50 52 55 55 57 58 57 58 61 62 63 64 63 61 53 44 34 27 27 29 27 28 29 29 30 33 31 32 37 39 46 49 50 46 43 34 30 31 38 51 50
45 48 50 49 50 55 58 54 56 58 58 58 61 63 63 63 61 60 50 43 37 27 27 32 31 27 28 32 33 34 30 29 33 38 44 49 50 54 52 44 40 33 32 39 49
48 50 49 49 52 56 57 53 56 59 58 59 61 63 62 62 58 56 49 44 37 31 28 29 26 24 28 31 29 28 29 33 37 40 44 50 51 52 48 45 43 41 36 36 41
50 49 49 49 55 56 58 56 58 59 59 59 60 62 61 60 59 55 48 41 39 31 29 26 26 25 27 29 32 33 33 33 35 36 41 48 58 45 46 29 25 24 43 37 36
51 48 48 51 55 58 58 59 59 59 58 59 59 60 60 57 58 56 50 44 37 31 30 26 29 25 27 27 30 29 28 26 30 34 37 43 39 19 31 28 29 37 38 40 38
53 53 52 52 58 61 60 61 61 61 58 59 58 60 59 56 54 56 52 46 39 33 31 28 25 26 26 29 30 26 19 24 33 38 42 34 25 16 24 26 24 26 31 36 40
53 55 53 57 59 64 64 63 61 62 58 59 58 58 58 57 56 54 50 48 37 35 32 31 29 27 26 29 29 26 25 30 36 37 43 21 20 19 21 22 26 27 24 29 37
55 57 58 58 61 65 63 63 61 61 60 59 60 57 56 56 59 56 54 49 42 35 35 31 32 28 27 29 31 31 30 29 31 32 24 24 15 16 18 18 16 23 27 34 35
57 58 61 60 63 64 60 60 60 62 58 59 60 58 55 56 57 54 51 47 43 38 34 30 29 32 28 31 36 33 29 31 30 25 21 12 17 15 17 19 18 18 24 33 36
Wind_Direction
297 296 298 300 305 306 302 302 308 313 314 313 312 309 308 310 314 317 310 309 306 304 299 295 289 284 279 278 273 267 267 268 266 266 266 263 258 246 243 239 239 242 243 239 236
300 299 303 303 303 303 302 303 307 311 313 314 311 311 311 309 313 317 310 313 309 307 302 295 290 285 280 277 271 267 264 265 265 264 263 258 254 245 238 236 234 238 240 238 234
302 304 306 308 305 305 302 304 309 308 312 313 310 311 314 311 313 313 312 312 310 305 303 299 294 289 287 276 272 268 266 265 261 261 259 256 250 247 237 236 233 235 237 237 232
305 306 306 307 304 303 306 305 306 308 311 312 309 309 312 313 316 313 314 312 310 309 307 305 302 292 281 272 271 270 267 268 269 266 261 256 249 244 238 232 235 235 234 235 234
307 307 307 306 305 306 308 306 307 309 311 310 311 313 315 316 314 315 314 314 313 312 312 312 305 292 279 276 276 275 274 272 272 267 260 249 244 240 241 233 233 235 235 233 234
306 306 307 307 305 304 307 310 310 311 311 314 315 318 317 315 316 315 316 317 314 316 320 315 300 285 279 280 283 278 272 272 265 261 253 247 237 232 239 228 228 228 232 232 232
306 306 308 309 307 306 307 309 312 313 316 316 317 320 318 316 317 317 320 318 320 324 321 305 293 286 287 286 285 278 274 265 260 256 251 247 239 229 226 221 223 223 227 231 230
307 308 310 310 309 309 309 310 314 318 320 319 320 319 317 319 319 319 322 324 327 329 323 309 298 292 287 271 271 270 265 264 260 256 255 253 239 226 231 226 221 219 220 226 229
310 311 312 311 310 310 308 312 316 319 321 320 320 320 319 319 320 324 327 329 331 332 324 307 295 292 286 280 273 270 263 265 260 259 255 255 244 240 235 231 227 216 218 222 226
314 313 313 313 311 309 312 315 317 318 321 319 320 320 320 324 325 327 330 333 336 331 316 302 297 294 288 278 275 272 272 272 263 262 253 238 245 242 242 240 231 220 213 216 223
315 314 317 318 316 316 318 319 319 318 319 320 321 321 322 326 328 330 333 336 336 332 317 302 292 287 294 291 285 284 281 275 271 266 263 250 232 240 238 241 237 229 219 215 221
315 317 321 319 320 320 321 319 317 318 320 322 322 323 326 328 330 333 336 339 338 330 318 305 292 285 283 282 289 294 288 282 274 269 268 262 254 238 240 243 240 231 220 217 217
315 318 320 322 322 322 324 323 323 322 324 325 327 327 330 329 332 337 339 341 339 330 321 306 298 286 282 293 287 298 288 278 273 266 266 259 252 245 242 240 242 233 220 218 217
316 318 321 322 321 323 325 324 325 326 325 330 330 329 330 331 335 338 342 343 339 331 324 305 295 290 287 298 292 300 300 290 275 270 271 270 257 245 241 240 232 224 219 216 216
316 319 320 323 324 325 327 328 327 327 328 331 330 329 332 334 336 340 345 343 338 334 321 307 297 292 295 298 300 300 302 305 305 297 281 279 261 237 242 237 234 218 218 208 212
315 318 321 321 324 328 331 332 330 329 331 331 330 331 334 336 339 342 344 340 339 329 314 309 306 305 303 304 304 299 293 297 296 292 292 291 268 240 236 234 232 232 214 218 212
315 317 320 323 325 329 333 331 330 331 330 332 331 332 335 339 341 343 342 336 332 325 311 302 307 309 308 307 303 297 299 295 290 287 289 290 271 260 243 232 230 233 230 216 214
316 316 321 323 325 327 331 332 330 329 331 332 332 335 337 340 342 342 339 335 325 310 306 301 298 301 298 305 304 295 288 290 289 289 287 283 276 261 240 238 230 228 226 224 212
315 317 320 323 324 325 328 330 331 330 332 333 333 337 338 340 340 340 336 333 324 308 296 294 293 295 294 287 298 292 287 284 283 281 280 275 276 268 261 243 239 231 227 227 221
316 316 319 323 324 326 329 329 330 332 333 335 335 337 338 340 339 337 336 332 325 308 292 293 290 290 287 286 288 290 289 287 284 284 277 264 278 278 270 249 248 239 233 227 225
314 315 321 328 329 329 331 329 331 333 334 336 336 336 337 339 337 333 333 328 320 313 298 294 290 288 289 287 289 290 292 290 286 291 292 282 272 272 281 267 252 243 230 226 222
314 319 323 327 329 328 334 330 330 333 335 334 336 335 335 337 334 331 329 323 320 312 302 292 285 290 290 284 286 288 292 292 292 294 292 287 276 277 276 242 223 232 233 232 220
317 319 320 326 325 327 329 332 330 332 334 333 334 333 334 336 331 333 329 324 317 309 303 289 280 291 291 285 283 285 289 289 291 294 301 292 287 267 262 222 236 240 236 233 226
318 319 318 323 324 325 325 329 330 330 334 331 332 330 333 333 328 331 327 324 317 308 296 290 278 282 282 282 284 287 285 291 289 297 297 299 285 256 264 245 251 240 232 230 226
317 316 317 320 321 323 323 326 330 328 332 330 330 328 332 331 327 328 325 321 316 306 298 289 281 273 268 273 278 274 278 282 289 300 298 297 279 262 257 263 263 235 216 227 223
312 314 313 317 318 319 321 325 327 328 331 329 328 328 330 328 327 328 325 322 319 306 298 289 283 275 268 274 276 272 272 287 298 304 301 282 262 252 257 267 267 266 239 222 222
311 313 314 318 319 318 319 322 325 329 330 327 326 328 329 328 326 326 322 320 316 309 297 284 283 281 272 273 272 278 280 279 293 296 286 265 251 248 249 260 268 263 259 231 223